Houston / Dunn Helistop, TX

6:56 PM CDT on August 22, 2017 (GMT -0500)
Houston / Dunn Helistop

Weather History for KMCJ - May, 2013

Change the Weather History Date:

Wednesday, May 8, 2013

  Actual Average (KHOU) Record (KHOU)
Temperature  
Mean Temperature 73 °F -  
Max Temperature 82 °F 83 °F 96 °F (1967)
Min Temperature 64 °F 66 °F 45 °F (1892)
Cooling Degree Days 8    
Growing Degree Days 23 (Base 50)    
Moisture  
Dew Point 60 °F    
Average Humidity 68    
Maximum Humidity 88    
Minimum Humidity 42    
Precipitation  
Precipitation 0.00 in - - ()
Sea Level Pressure  
Sea Level Pressure 29.98 in    
Wind  
Wind Speed - (North)    
Max Wind Speed -    
Max Gust Speed -    
Visibility 10 miles    
Events      
Averages and records for this station are not official NWS values.
T = Trace of Precipitation, MM = Missing Value Source: NWS Daily Summary

Daily Weather History Graph

Daily Weather History Graph

Search for Another Location

Airport or City:

Trip Planner

Search our weather history database for the weather conditions in past years. The results will help you decide how hot, cold, wet, or windy it might be!

Date:

Astronomy

May. 08, 2013 Rise Set
Actual Time 6:33 AM CDT 8:03 PM CDT
Civil Twilight 6:07 AM CDT 8:28 PM CDT
Nautical Twilight 5:36 AM CDT 8:59 PM CDT
Astronomical Twilight 5:04 AM CDT 9:31 PM CDT
Moon 5:36 AM CDT (5/8) 7:05 PM CDT (5/8)
Length of Visible Light 14h 21m
Length of Day
13h 29m
Waning Crescent, 2% of the Moon is Illuminated
May 8
Waning Crescent
May 9
New
May 17
First Quarter
May 24
Full
May 31
Last Quarter

Hourly Weather History & Observations

Time (CDT) Temp. Heat Index Dew Point Humidity Pressure Visibility Wind Dir Wind Speed Gust Speed Precip Events Conditions
12:15 AM 66.2 °F - 59.0 °F 78% 29.99 in 10.0 mi North - - N/A   Clear
12:35 AM 66.2 °F - 59.0 °F 78% 29.99 in 10.0 mi North - - N/A   Clear
12:55 AM 66.2 °F - 59.0 °F 78% 29.99 in 10.0 mi North - - N/A   Clear
1:15 AM 66.2 °F - 59.0 °F 78% 29.99 in 10.0 mi North - - N/A   Clear
1:35 AM 66.2 °F - 59.0 °F 78% 29.98 in 10.0 mi North - - N/A   Clear
1:55 AM 66.2 °F - 59.0 °F 78% 29.97 in 10.0 mi North - - N/A   Clear
2:15 AM 66.2 °F - 57.2 °F 73% 29.97 in 10.0 mi North - - N/A   Clear
2:35 AM 66.2 °F - 57.2 °F 73% 29.97 in 10.0 mi North - - N/A   Clear
2:55 AM 66.2 °F - 59.0 °F 78% 29.97 in 10.0 mi North - - N/A   Clear
3:15 AM 66.2 °F - 59.0 °F 78% 29.97 in 10.0 mi North - - N/A   Clear
3:35 AM 66.2 °F - 59.0 °F 78% 29.96 in 10.0 mi North - - N/A   Clear
3:55 AM 64.4 °F - 59.0 °F 83% 29.95 in 10.0 mi North - - N/A   Clear
4:15 AM 66.2 °F - 59.0 °F 78% 29.96 in 10.0 mi North - - N/A   Clear
4:35 AM 64.4 °F - 59.0 °F 83% 29.96 in 10.0 mi North - - N/A   Clear
4:55 AM 64.4 °F - 59.0 °F 83% 29.96 in 10.0 mi North - - N/A   Clear
5:15 AM 64.4 °F - 59.0 °F 83% 29.96 in 10.0 mi North - - N/A   Clear
5:35 AM 64.4 °F - 59.0 °F 83% 29.97 in 10.0 mi North - - N/A   Clear
5:55 AM 66.2 °F - 60.8 °F 83% 29.97 in 10.0 mi North - - N/A   Clear
6:15 AM 66.2 °F - 60.8 °F 83% 29.97 in 10.0 mi North - - N/A   Clear
6:35 AM 66.2 °F - 60.8 °F 83% 29.99 in 10.0 mi North - - N/A   Clear
6:55 AM 64.4 °F - 60.8 °F 88% 29.99 in 9.0 mi North - - N/A   Clear
7:15 AM 64.4 °F - 60.8 °F 88% 30.00 in 8.0 mi North - - N/A   Clear
7:35 AM 64.4 °F - 60.8 °F 88% 30.01 in 8.0 mi North - - N/A   Clear
7:55 AM 66.2 °F - 62.6 °F 88% 30.01 in 9.0 mi North - - N/A   Clear
8:15 AM 66.2 °F - 62.6 °F 88% 30.02 in 9.0 mi North - - N/A   Clear
8:35 AM 68.0 °F - 62.6 °F 83% 30.02 in 9.0 mi North - - N/A   Clear
8:55 AM 68.0 °F - 62.6 °F 83% 30.03 in 10.0 mi North - - N/A   Mostly Cloudy
9:15 AM 71.6 °F - 62.6 °F 73% 30.03 in 10.0 mi North - - N/A   Overcast
9:35 AM 71.6 °F - 64.4 °F 78% 30.04 in 10.0 mi North - - N/A   Overcast
9:55 AM 73.4 °F - 62.6 °F 69% 30.04 in 10.0 mi North - - N/A   Mostly Cloudy
10:15 AM 75.2 °F - 62.6 °F 65% 30.05 in 10.0 mi North - - N/A   Mostly Cloudy
10:35 AM 77.0 °F - 62.6 °F 61% 30.04 in 10.0 mi North - - N/A   Mostly Cloudy
10:55 AM 75.2 °F - 60.8 °F 61% 30.04 in 10.0 mi North - - N/A   Mostly Cloudy
11:15 AM 75.2 °F - 59.0 °F 57% 30.04 in 10.0 mi North - - N/A   Scattered Clouds
11:35 AM 77.0 °F - 59.0 °F 54% 30.04 in 10.0 mi North - - N/A   Clear
11:55 AM 78.8 °F - 59.0 °F 51% 30.03 in 10.0 mi North - - N/A   Partly Cloudy
12:15 PM 78.8 °F - 59.0 °F 51% 30.03 in 10.0 mi North - - N/A   Clear
12:35 PM 80.6 °F 81.1 °F 59.0 °F 48% 30.02 in 10.0 mi North - - N/A   Clear
12:55 PM 80.6 °F 80.8 °F 57.2 °F 45% 30.01 in 10.0 mi North - - N/A   Clear
1:15 PM 80.6 °F 81.1 °F 59.0 °F 48% 30.01 in 10.0 mi North - - N/A   Clear
1:35 PM 82.4 °F 82.5 °F 59.0 °F 45% 30.00 in 10.0 mi North - - N/A   Partly Cloudy
1:55 PM 82.4 °F 82.5 °F 59.0 °F 45% 30.00 in 10.0 mi North - - N/A   Partly Cloudy
2:15 PM 82.4 °F 82.5 °F 59.0 °F 45% 29.99 in 10.0 mi North - - N/A   Clear
2:35 PM 82.4 °F 82.0 °F 57.2 °F 42% 29.99 in 10.0 mi North - - N/A   Clear
2:55 PM 82.4 °F 82.5 °F 59.0 °F 45% 29.98 in 10.0 mi North - - N/A   Clear
3:15 PM 82.4 °F 82.0 °F 57.2 °F 42% 29.97 in 10.0 mi North - - N/A   Clear
3:35 PM 82.4 °F 82.0 °F 57.2 °F 42% 29.96 in 10.0 mi North - - N/A   Clear
3:55 PM 82.4 °F 82.0 °F 57.2 °F 42% 29.96 in 10.0 mi North - - N/A   Clear
4:15 PM 80.6 °F 80.8 °F 57.2 °F 45% 29.96 in 10.0 mi North - - N/A   Clear
4:35 PM 80.6 °F 81.1 °F 59.0 °F 48% 29.95 in 10.0 mi North - - N/A   Clear
4:55 PM 80.6 °F 81.1 °F 59.0 °F 48% 29.95 in 10.0 mi North - - N/A   Clear
5:15 PM 80.6 °F 81.1 °F 59.0 °F 48% 29.95 in 10.0 mi North - - N/A   Clear
5:35 PM 78.8 °F - 59.0 °F 51% 29.95 in 10.0 mi North - - N/A   Clear
5:55 PM 77.0 °F - 59.0 °F 54% 29.94 in 10.0 mi North - - N/A   Clear
6:15 PM 77.0 °F - 59.0 °F 54% 29.94 in 10.0 mi North - - N/A   Clear
6:35 PM 77.0 °F - 59.0 °F 54% 29.94 in 10.0 mi North - - N/A   Clear
6:55 PM 75.2 °F - 60.8 °F 61% 29.95 in 10.0 mi North - - N/A   Clear
7:15 PM 75.2 °F - 60.8 °F 61% 29.95 in 10.0 mi North - - N/A   Clear
7:35 PM 73.4 °F - 60.8 °F 65% 29.96 in 10.0 mi North - - N/A   Clear
7:55 PM 73.4 °F - 62.6 °F 69% 29.95 in 10.0 mi North - - N/A   Clear
8:15 PM 71.6 °F - 62.6 °F 73% 29.95 in 10.0 mi North - - N/A   Clear
8:35 PM 71.6 °F - 62.6 °F 73% 29.95 in 10.0 mi North - - N/A   Clear
8:55 PM 69.8 °F - 62.6 °F 78% 29.96 in 10.0 mi North - - N/A   Clear
9:15 PM 69.8 °F - 62.6 °F 78% 29.95 in 10.0 mi North - - N/A   Clear
9:35 PM 69.8 °F - 64.4 °F 83% 29.96 in 10.0 mi North - - N/A   Clear
9:55 PM 68.0 °F - 64.4 °F 88% 29.96 in 10.0 mi North - - N/A   Clear
10:15 PM 68.0 °F - 64.4 °F 88% 29.96 in 10.0 mi North - - N/A   Clear
10:55 PM 68.0 °F - 64.4 °F 88% 29.97 in 10.0 mi North - - N/A   Clear
11:35 PM 68.0 °F - 64.4 °F 88% 29.97 in 10.0 mi North - - N/A   Clear
11:55 PM 68.0 °F - 64.4 °F 88% 29.97 in 10.0 mi North - - N/A   Scattered Clouds